| time (UTC) | temp F | wind direction | speed MPH | gust MPH | rain 1hr in | rain 24hr in | rain mn in | humidity % | barometer mb |
| 20260507174557 | 52 | 248 | 0.0 | 1.0 | 0.00 | 0.00 | 0.00 | 75 | 1007.2 |
| 20260507173054 | 52 | 218 | 0.0 | 1.0 | 0.00 | 0.00 | 0.00 | 74 | 1007.0 |
| 20260507171559 | 54 | 217 | 0.0 | 3.0 | 0.00 | 0.00 | 0.00 | 71 | 1006.7 |
| 20260507170050 | 54 | 194 | 0.0 | 8.0 | 0.00 | 0.00 | 0.00 | 71 | 1006.5 |
| 20260507164547 | 53 | 93 | 1.0 | 7.0 | 0.00 | 0.00 | 0.00 | 73 | 1006.4 |
| 20260507163045 | 54 | 180 | 0.0 | 5.0 | 0.00 | 0.00 | 0.00 | 73 | 1006.8 |
| 20260507161552 | 54 | 134 | 0.0 | 2.0 | 0.00 | 0.00 | 0.00 | 73 | 1006.5 |
| 20260507160044 | 55 | 138 | 0.0 | 2.0 | 0.00 | 0.00 | 0.00 | 71 | 1006.5 |
| 20260507154545 | 55 | 161 | 0.0 | 7.0 | 0.00 | 0.00 | 0.00 | 72 | 1006.4 |
| 20260507153048 | 56 | 94 | 1.0 | 14.0 | 0.00 | 0.00 | 0.00 | 71 | 1006.1 |
| 20260507151639 | 55 | 161 | 2.0 | 12.0 | 0.00 | 0.00 | 0.00 | 74 | 1006.0 |
| 20260507150043 | 54 | 142 | 1.0 | 8.0 | 0.00 | 0.00 | 0.00 | 77 | 1006.0 |
| 20260507144539 | 54 | 109 | 0.0 | 2.0 | 0.00 | 0.00 | 0.00 | 79 | 1005.9 |
| 20260507143036 | 55 | 102 | 0.0 | 13.0 | 0.00 | 0.00 | 0.00 | 78 | 1005.8 |
| 20260507141535 | 55 | 96 | 0.0 | 12.0 | 0.00 | 0.00 | 0.00 | 78 | 1006.0 |
| 20260507140034 | 55 | 136 | 0.0 | 11.0 | 0.00 | 0.00 | 0.00 | 78 | 1006.0 |
| 20260507134531 | 54 | 74 | 0.0 | 3.0 | 0.00 | 0.00 | 0.00 | 79 | 1006.2 |
| 20260507133028 | 54 | 117 | 1.0 | 11.0 | 0.00 | 0.00 | 0.00 | 78 | 1006.4 |
| 20260507131527 | 54 | 123 | 1.0 | 17.0 | 0.00 | 0.00 | 0.00 | 79 | 1006.4 |
| 20260507130024 | 53 | 163 | 0.0 | 9.0 | 0.00 | 0.00 | 0.00 | 80 | 1006.4 |
| 20260507124518 | 52 | 155 | 0.0 | 11.0 | 0.00 | 0.00 | 0.00 | 82 | 1006.7 |
| 20260507123018 | 52 | 67 | 0.0 | 14.0 | 0.00 | 0.00 | 0.00 | 82 | 1006.7 |
| 20260507121516 | 52 | 72 | 1.0 | 15.0 | 0.00 | 0.00 | 0.00 | 82 | 1007.1 |
| 20260507120016 | 52 | 134 | 1.0 | 15.0 | 0.00 | 0.00 | 0.00 | 82 | 1007.5 |
| 20260507114516 | 51 | 148 | 2.0 | 13.0 | 0.00 | 0.00 | 0.00 | 83 | 1007.6 |
| 20260507113014 | 52 | 112 | 0.0 | 9.0 | 0.00 | 0.00 | 0.00 | 82 | 1007.9 |
| 20260507111513 | 52 | 111 | 0.0 | 12.0 | 0.00 | 0.00 | 0.00 | 81 | 1008.3 |
| 20260507110012 | 52 | 104 | 1.0 | 4.0 | 0.00 | 0.00 | 0.00 | 81 | 1008.4 |
| 20260507104512 | 52 | 68 | 0.0 | 10.0 | 0.00 | 0.01 | 0.00 | 80 | 1008.8 |
| 20260507103012 | 52 | 178 | 0.0 | 9.0 | 0.00 | 0.01 | 0.00 | 79 | 1009.1 |
| 20260507101511 | 52 | 127 | 0.0 | 10.0 | 0.00 | 0.01 | 0.00 | 78 | 1009.3 |
| 20260507100009 | 51 | 162 | 0.0 | 11.0 | 0.00 | 0.01 | 0.00 | 77 | 1009.9 |
| 20260507094508 | 50 | 116 | 1.0 | 4.0 | 0.00 | 0.02 | 0.00 | 78 | 1009.9 |
| 20260507093008 | 50 | 136 | 0.0 | 10.0 | 0.00 | 0.02 | 0.00 | 77 | 1010.5 |
| 20260507091508 | 50 | 157 | 0.0 | 11.0 | 0.00 | 0.02 | 0.00 | 75 | 1010.7 |
| 20260507090006 | 50 | 217 | 1.0 | 15.0 | 0.00 | 0.02 | 0.00 | 74 | 1011.0 |
| 20260507084505 | 50 | 78 | 0.0 | 7.0 | 0.00 | 0.02 | 0.00 | 73 | 1010.8 |
| 20260507083005 | 50 | 115 | 0.0 | 3.0 | 0.00 | 0.02 | 0.00 | 72 | 1011.5 |
| 20260507081503 | 50 | 132 | 0.0 | 6.0 | 0.00 | 0.02 | 0.00 | 71 | 1011.5 |
| 20260507074625 | 50 | 128 | 0.0 | 14.0 | 0.00 | 0.02 | 0.00 | 71 | 1011.6 |
| 20260507073103 | 49 | 189 | 0.0 | 6.0 | 0.00 | 0.02 | 0.00 | 72 | 1011.9 |
| 20260507071558 | 49 | 89 | 0.0 | 0.0 | 0.00 | 0.02 | 0.00 | 69 | 1012.1 |
| 20260507070104 | 48 | 190 | 0.0 | 4.0 | 0.00 | 0.02 | 0.00 | 67 | 1012.2 |
| 20260507064558 | 48 | 178 | 0.0 | 2.0 | 0.00 | 0.02 | 0.00 | 66 | 1012.3 |
| 20260507063058 | 48 | 138 | 0.0 | 1.0 | 0.00 | 0.02 | 0.00 | 65 | 1012.6 |
| 20260507061556 | 48 | 140 | 0.0 | 2.0 | 0.00 | 0.02 | 0.00 | 66 | 1012.9 |
| 20260507060100 | 48 | 65 | 0.0 | 2.0 | 0.00 | 0.02 | 0.00 | 66 | 1012.8 |
| 20260507054556 | 49 | 173 | 0.0 | 1.0 | 0.00 | 0.02 | 0.00 | 65 | 1012.9 |
| 20260507053055 | 49 | 173 | 0.0 | 2.0 | 0.00 | 0.02 | 0.00 | 64 | 1013.1 |
| 20260507051555 | 49 | 188 | 0.0 | 1.0 | 0.00 | 0.02 | 0.00 | 64 | 1013.1 |
| 20260507050057 | 49 | 119 | 0.0 | 3.0 | 0.00 | 0.02 | 0.00 | 61 | 1013.2 |
| 20260507044554 | 50 | 203 | 0.0 | 5.0 | 0.00 | 0.03 | 0.00 | 59 | 1013.3 |
| 20260507043053 | 50 | 74 | 0.0 | 8.0 | 0.00 | 0.03 | 0.00 | 57 | 1013.3 |
| 20260507041551 | 51 | 128 | 0.0 | 4.0 | 0.00 | 0.03 | 0.00 | 56 | 1013.5 |
| 20260507040051 | 51 | 117 | 0.0 | 1.0 | 0.00 | 0.03 | 0.00 | 57 | 1013.2 |
| 20260507034551 | 51 | 146 | 0.0 | 4.0 | 0.00 | 0.03 | 0.00 | 57 | 1013.4 |
| 20260507033050 | 51 | 180 | 0.0 | 3.0 | 0.00 | 0.03 | 0.00 | 58 | 1013.3 |
| 20260507031550 | 51 | 101 | 0.0 | 3.0 | 0.00 | 0.03 | 0.00 | 54 | 1013.2 |
| 20260507030049 | 52 | 126 | 0.0 | 7.0 | 0.00 | 0.03 | 0.00 | 56 | 1013.3 |
| 20260507024601 | 52 | 130 | 0.0 | 6.0 | 0.00 | 0.04 | 0.00 | 52 | 1013.5 |
| 20260507023047 | 52 | 130 | 0.0 | 0.0 | 0.00 | 0.04 | 0.00 | 54 | 1013.5 |
| 20260507021546 | 52 | 158 | 0.0 | 0.0 | 0.00 | 0.04 | 0.00 | 54 | 1013.6 |
| 20260507020104 | 52 | 86 | 0.0 | 0.0 | 0.00 | 0.04 | 0.00 | 53 | 1013.7 |
| 20260507014554 | 53 | 75 | 0.0 | 0.0 | 0.00 | 0.08 | 0.00 | 48 | 1013.6 |
| 20260507013048 | 54 | 94 | 0.0 | 0.0 | 0.00 | 0.08 | 0.00 | 52 | 1013.7 |
| 20260507011540 | 53 | 92 | 0.0 | 0.0 | 0.00 | 0.08 | 0.00 | 52 | 1013.7 |
| 20260507010040 | 53 | 144 | 0.0 | 0.0 | 0.00 | 0.08 | 0.00 | 58 | 1013.8 |
| 20260507004542 | 53 | 126 | 0.0 | 0.0 | 0.00 | 0.08 | 0.00 | 58 | 1013.7 |
| 20260507003035 | 52 | 76 | 0.0 | 0.0 | 0.00 | 0.08 | 0.00 | 55 | 1013.5 |
| 20260507001534 | 53 | 105 | 0.0 | 0.0 | 0.00 | 0.08 | 0.00 | 55 | 1013.4 |
| 20260507000028 | 53 | 80 | 0.0 | 0.0 | 0.00 | 0.08 | 0.00 | 56 | 1013.3 |
| 20260506234534 | 52 | 80 | 0.0 | 0.0 | 0.00 | 0.08 | 0.00 | 61 | 1013.3 |
| 20260506233020 | 51 | 42 | 0.0 | 0.0 | 0.00 | 0.08 | 0.00 | 61 | 1013.2 |
| 20260506231530 | 50 | 140 | 0.0 | 0.0 | 0.00 | 0.08 | 0.00 | 66 | 1013.2 |
| 20260506230011 | 48 | 114 | 0.0 | 0.0 | 0.00 | 0.08 | 0.00 | 72 | 1013.2 |
| 20260506224507 | 46 | 120 | 0.0 | 0.0 | 0.00 | 0.10 | 0.00 | 75 | 1013.1 |
| 20260506223004 | 42 | 119 | 0.0 | 0.0 | 0.00 | 0.10 | 0.00 | 82 | 1012.9 |
| 20260506221600 | 40 | 169 | 0.0 | 0.0 | 0.00 | 0.10 | 0.00 | 88 | 1012.7 |
| 20260506220057 | 39 | 169 | 0.0 | 0.0 | 0.00 | 0.10 | 0.00 | 88 | 1012.3 |
| 20260506214554 | 39 | 163 | 0.0 | 0.0 | 0.00 | 0.10 | 0.00 | 88 | 1011.8 |
| 20260506213108 | 39 | 163 | 0.0 | 0.0 | 0.00 | 0.10 | 0.00 | 86 | 1011.8 |
| 20260506211604 | 40 | 163 | 0.0 | 0.0 | 0.00 | 0.10 | 0.00 | 85 | 1011.5 |
| 20260506210046 | 40 | 163 | 0.0 | 0.0 | 0.00 | 0.10 | 0.00 | 84 | 1011.6 |
| 20260506204548 | 41 | 163 | 0.0 | 0.0 | 0.00 | 0.10 | 0.00 | 82 | 1011.0 |
| 20260506203045 | 42 | 163 | 0.0 | 0.0 | 0.00 | 0.10 | 0.00 | 81 | 1010.9 |
| 20260506201550 | 43 | 163 | 0.0 | 1.0 | 0.00 | 0.10 | 0.00 | 79 | 1011.0 |
| 20260506200033 | 43 | 171 | 0.0 | 4.0 | 0.00 | 0.10 | 0.00 | 77 | 1010.8 |
| 20260506194531 | 43 | 146 | 0.0 | 0.0 | 0.00 | 0.10 | 0.00 | 77 | 1010.2 |
| 20260506193027 | 43 | 74 | 0.0 | 0.0 | 0.00 | 0.10 | 0.00 | 76 | 1009.9 |
| 20260506191525 | 43 | 74 | 0.0 | 0.0 | 0.00 | 0.10 | 0.00 | 76 | 1009.7 |
| 20260506190022 | 44 | 74 | 0.0 | 0.0 | 0.00 | 0.10 | 0.00 | 77 | 1009.6 |
| 20260506184520 | 44 | 74 | 0.0 | 1.0 | 0.00 | 0.12 | 0.00 | 74 | 1009.3 |
| 20260506183028 | 45 | 136 | 0.0 | 4.0 | 0.00 | 0.12 | 0.00 | 74 | 1009.3 |
| 20260506181517 | 45 | 121 | 0.0 | 7.0 | 0.00 | 0.12 | 0.00 | 74 | 1009.0 |
| 20260506180016 | 44 | 105 | 0.0 | 4.0 | 0.00 | 0.12 | 0.00 | 75 | 1009.0 |